GFSSW_925_rhum_216.txt.gz
RH
66 50 41 43 47 52 59 66 69 70 72 73 74 69 62 60 55 43 29 23 23 22 21 21 18 18 17 16 13 12 19 20 15 12 11 8 9 8 9 11 10 13 20 49 44
76 69 60 43 40 47 56 63 64 70 73 73 76 74 67 61 58 37 26 22 21 20 21 18 16 15 17 16 14 16 20 17 12 10 11 9 9 8 11 11 10 12 16 20 30
97 80 73 65 48 40 47 58 65 66 72 72 73 75 71 64 48 23 25 23 22 20 22 18 15 14 17 14 15 15 19 14 12 11 11 11 10 9 10 12 9 11 16 16 21
100 100 90 78 69 53 44 50 61 70 70 79 75 76 70 66 43 26 24 23 21 20 21 17 16 18 18 18 14 17 14 14 13 12 12 13 11 11 11 10 8 8 11 15 20
97 100 100 99 82 74 60 50 55 69 67 73 77 80 71 51 41 28 24 22 24 24 18 16 17 17 19 16 14 15 14 13 12 12 12 12 13 12 11 9 8 8 10 11 12
78 90 99 99 100 90 77 64 53 67 77 77 76 84 72 68 34 27 27 25 24 21 19 17 16 15 17 18 17 14 14 14 13 13 12 13 13 12 11 9 9 9 10 10 11
69 67 80 99 100 100 94 79 63 68 80 80 82 86 66 55 35 29 28 28 24 22 19 17 16 16 16 20 16 16 19 16 15 14 14 12 15 14 10 9 10 9 10 10 11
62 82 77 80 96 100 100 96 81 69 88 94 95 85 78 47 47 44 40 36 27 26 19 19 20 19 18 17 19 22 20 24 17 14 13 14 19 12 11 10 11 12 12 12 16
61 60 70 76 75 97 100 100 91 79 96 93 96 81 69 41 48 43 39 34 32 30 28 26 24 26 21 25 28 24 30 24 19 14 13 14 17 12 9 10 12 12 13 13 21
65 60 62 76 81 82 98 100 99 94 99 99 85 78 60 52 37 40 39 39 29 27 30 28 28 32 29 27 36 28 26 24 23 15 13 15 16 13 12 12 13 14 14 14 18
68 57 62 72 89 92 97 100 100 100 99 90 76 59 31 40 34 35 36 33 34 31 37 31 38 38 31 27 23 21 22 21 16 14 14 16 16 14 12 14 15 13 13 15 20
83 67 47 66 78 82 100 97 80 66 93 86 64 57 47 35 36 33 30 35 41 44 32 33 45 30 25 23 24 24 26 25 19 15 16 16 17 14 13 12 13 13 14 16 25
86 85 80 59 73 88 95 95 87 77 90 66 75 62 50 40 44 34 30 29 35 38 31 36 31 25 26 25 25 24 27 26 25 18 16 18 19 18 15 14 12 12 12 14 26
83 84 84 78 68 65 84 89 80 94 99 86 76 68 48 41 45 31 26 28 32 36 30 28 24 22 25 25 23 28 20 21 23 24 29 18 31 22 19 18 15 14 14 20 26
83 84 82 74 51 57 82 85 88 100 98 73 60 46 43 50 33 32 27 28 35 31 29 31 27 28 26 23 22 25 20 20 22 25 27 25 28 22 16 17 17 16 18 25 27
82 80 81 78 81 64 50 72 99 100 96 81 42 53 58 50 47 28 32 27 26 29 28 28 19 21 22 19 19 20 22 24 26 29 43 34 32 29 21 18 18 20 20 26 27
80 81 82 72 63 61 51 89 99 98 91 82 51 44 60 60 54 47 44 40 41 47 41 26 24 18 17 21 20 22 30 45 51 48 45 26 28 28 21 18 18 24 27 29 30
83 82 79 73 69 56 71 99 97 83 96 58 42 38 62 56 58 53 54 50 36 35 36 40 38 22 17 22 26 28 30 51 60 52 44 33 42 27 18 15 15 24 28 32 32
87 84 83 80 70 62 91 97 90 96 75 58 38 48 61 57 54 58 56 55 45 36 46 40 37 21 20 21 24 34 37 29 45 43 56 47 36 26 22 22 27 28 32 35 35
96 88 78 73 76 73 98 96 92 76 65 47 50 62 70 62 58 62 60 46 44 38 34 40 53 27 22 21 25 28 27 50 52 92 76 53 42 36 32 30 32 34 38 38 33
97 98 70 71 77 96 95 92 73 53 64 69 51 80 51 54 53 60 54 44 41 40 38 41 57 50 29 30 34 35 40 38 47 68 68 60 41 26 30 27 34 37 39 36 31
95 98 62 67 97 97 94 73 65 48 49 76 66 54 48 45 55 55 54 50 35 40 44 40 53 75 51 31 23 31 39 40 85 95 72 67 53 29 29 29 32 37 39 34 28
96 94 55 69 96 96 71 71 75 61 48 55 86 66 46 42 54 48 49 37 31 38 47 42 86 98 76 56 36 37 37 39 42 58 71 81 70 29 29 30 32 38 38 29 27
98 98 92 87 74 70 81 66 73 69 56 42 67 72 64 46 44 53 50 41 39 37 66 54 85 76 75 56 51 52 50 48 47 80 68 68 48 39 33 33 32 35 32 27 25
100 96 72 95 96 77 65 52 57 73 60 55 53 78 84 60 55 58 52 53 46 77 71 68 90 78 53 73 54 41 47 46 58 57 73 56 46 38 37 33 32 31 26 23 23
98 90 59 59 60 87 69 69 60 57 75 67 79 64 82 74 54 68 59 59 62 78 81 75 81 69 73 64 80 88 64 38 49 56 52 54 48 31 34 34 32 29 25 25 24
58 41 57 57 63 76 82 65 53 49 58 74 67 69 88 80 53 44 49 52 55 72 83 85 86 83 94 63 77 98 85 60 39 33 35 51 39 26 37 37 36 33 28 26 23

GFSSW_925_rhum_219.txt.gz
RH
93 80 70 63 47 44 46 50 59 64 67 68 68 67 65 65 56 49 49 33 30 28 21 21 23 23 23 24 21 19 30 34 26 23 17 12 13 11 11 12 12 34 50 48 44
100 100 90 78 68 55 45 49 51 59 64 70 71 67 68 66 62 54 26 24 27 23 20 21 23 21 25 25 23 25 34 30 20 17 16 12 10 11 12 12 13 34 42 41 34
100 100 100 100 88 74 65 48 49 56 62 66 69 74 68 67 62 34 26 27 26 22 20 20 21 21 23 23 22 23 26 22 19 17 17 15 14 10 13 15 14 21 50 48 53
95 98 99 100 100 99 84 70 52 53 66 72 69 73 74 70 60 25 24 23 23 22 22 22 23 24 25 26 21 23 19 19 18 16 16 17 15 16 14 14 12 12 29 44 49
74 86 93 96 100 99 100 94 77 58 57 72 78 80 79 75 60 31 35 24 22 21 24 24 24 23 26 23 22 22 19 17 16 16 16 15 16 16 16 13 12 10 17 27 29
80 69 79 84 93 100 99 99 98 81 60 70 80 85 86 96 49 39 35 26 23 23 23 23 23 20 22 23 25 22 22 21 18 17 16 17 16 15 15 13 12 12 12 16 21
74 68 65 76 81 90 99 99 99 98 80 76 88 92 87 77 49 42 39 30 28 25 25 21 20 24 23 26 21 22 26 24 20 18 18 17 20 18 15 13 13 12 12 12 14
77 80 75 62 71 77 92 99 99 99 94 84 97 99 92 58 55 41 37 42 40 31 26 26 23 28 27 24 24 27 29 35 22 20 18 19 24 16 14 14 14 14 13 14 23
81 78 72 67 64 72 80 95 96 100 100 92 95 95 81 51 58 49 45 43 38 37 29 28 28 32 32 36 37 33 40 36 29 20 20 20 22 17 14 14 14 16 16 24 32
76 84 73 63 65 78 87 82 90 100 100 98 88 92 69 68 48 50 43 45 39 36 38 38 40 43 39 42 47 38 40 32 32 23 22 22 21 16 16 15 14 18 20 25 38
72 81 81 69 63 80 87 90 100 100 98 82 80 65 42 45 40 41 44 43 43 48 51 44 54 56 44 37 31 30 32 32 27 22 24 24 22 19 17 16 17 21 20 26 42
84 76 76 79 72 75 81 99 88 94 98 83 56 74 54 45 53 42 38 51 54 66 53 48 57 42 34 34 35 34 36 35 27 23 23 22 22 20 18 19 18 18 22 37 42
82 83 78 81 80 87 92 77 81 93 99 87 80 65 64 57 65 52 38 44 50 60 55 55 42 35 37 38 37 35 36 34 33 26 24 25 27 23 18 17 18 17 15 33 40
82 83 80 73 90 84 79 44 41 62 100 91 94 80 61 52 61 44 38 39 48 56 54 52 37 34 40 42 35 42 28 28 28 31 39 26 39 28 22 21 19 19 20 34 37
84 81 82 82 69 69 73 65 67 94 98 87 78 62 60 68 43 44 35 43 46 46 46 47 38 39 37 40 32 37 27 27 26 30 34 31 41 30 23 23 20 18 18 34 36
93 86 82 85 85 78 57 44 68 99 97 94 70 77 77 70 59 38 40 37 36 40 39 40 30 31 33 28 27 25 28 27 28 32 46 34 37 33 28 25 22 19 19 34 35
91 92 87 84 84 81 58 81 93 97 76 86 76 63 76 83 74 58 50 51 62 62 55 41 37 29 26 31 27 28 32 62 81 64 68 35 41 35 27 23 22 24 34 35 34
86 97 96 83 81 67 71 98 96 66 80 66 64 57 82 66 74 70 62 61 46 47 51 55 58 37 28 31 33 31 32 57 86 78 59 37 44 37 26 23 20 22 34 34 36
91 98 100 90 81 73 87 97 81 58 51 54 66 67 75 66 61 70 71 75 63 47 61 54 52 28 27 26 24 29 36 31 53 49 65 52 47 36 25 30 25 28 36 40 36
100 97 95 91 84 82 94 91 74 60 38 53 62 60 73 71 72 74 74 59 69 49 39 44 62 34 25 23 22 25 29 44 80 91 79 60 56 51 36 41 39 42 42 42 36
99 98 83 92 86 96 96 86 70 51 56 61 61 52 58 69 68 73 66 53 56 56 42 42 53 56 44 32 32 31 43 44 54 84 83 75 60 36 31 41 41 43 42 39 34
96 98 89 88 98 97 94 77 54 45 42 56 68 75 50 53 69 67 66 56 45 48 61 45 52 64 52 45 37 29 36 44 75 82 78 85 77 33 35 40 42 46 43 39 34
96 96 86 85 96 96 79 69 62 52 49 55 84 82 70 74 70 61 63 44 44 49 53 49 75 80 79 62 61 65 57 35 49 81 81 84 76 36 34 45 46 46 39 34 33
97 97 100 97 85 86 85 77 81 54 48 42 76 74 92 93 83 78 58 50 44 46 48 47 85 68 70 56 52 66 57 40 42 75 72 76 59 40 44 47 49 46 39 33 30
98 97 87 96 97 81 67 65 73 74 55 44 57 72 92 98 95 95 85 56 49 48 52 51 71 80 60 66 49 47 48 42 44 47 71 59 58 51 46 45 48 47 38 32 31
99 99 86 74 84 84 67 71 68 65 56 70 67 56 67 93 94 79 84 89 62 65 56 58 72 79 85 70 62 58 49 61 54 54 60 55 53 40 37 36 41 40 31 30 28
98 73 70 79 82 88 77 64 66 53 51 45 52 57 64 68 72 59 68 94 91 61 68 70 89 90 88 77 85 99 77 68 69 59 62 68 54 45 49 50 42 32 27 27 27

GFSSW_925_rhum_225.txt.gz
RH
100 100 100 99 100 98 90 79 65 53 51 53 56 60 60 62 56 53 58 31 28 27 27 26 26 28 28 30 27 28 43 51 38 31 25 22 22 17 15 57 48 52 51 47 53
86 96 100 100 100 98 100 98 85 75 60 57 59 66 66 65 60 61 29 32 35 38 33 29 26 28 32 32 32 34 49 42 33 26 26 23 23 18 15 29 40 44 44 44 52
82 79 81 90 98 100 100 97 100 92 82 65 62 68 70 67 68 47 35 34 35 38 40 25 24 25 30 30 31 32 40 32 28 26 25 25 24 17 16 17 33 42 38 46 54
83 79 76 73 86 91 99 100 95 99 97 86 70 76 77 69 54 32 34 37 37 31 28 25 26 29 31 30 27 34 30 28 25 24 23 25 22 18 17 16 14 27 39 43 57
79 72 79 89 82 82 87 94 100 95 98 98 84 80 89 92 73 30 34 36 34 34 28 28 31 30 32 29 27 31 26 25 24 24 24 22 22 21 20 17 15 35 39 40 55
70 73 79 74 79 82 76 78 88 99 96 98 98 90 93 94 49 30 36 41 43 38 31 29 29 27 32 33 31 26 27 28 27 25 25 23 23 21 18 16 17 43 45 45 55
74 72 78 77 77 78 75 67 73 88 99 100 100 98 88 73 45 50 58 56 48 48 49 38 30 30 31 36 28 27 31 31 25 26 25 24 25 24 19 17 18 48 50 45 50
88 70 70 71 79 75 69 72 69 71 97 98 100 100 86 60 51 39 45 47 42 38 45 44 40 35 35 32 33 32 30 40 26 26 25 24 32 24 21 20 19 19 35 54 51
75 65 69 68 72 75 65 65 65 79 80 100 100 96 85 59 68 49 45 46 34 39 40 41 34 40 36 42 48 39 50 44 32 26 26 26 31 24 20 22 22 21 22 26 51
75 77 72 71 66 73 70 61 50 83 93 97 100 94 80 70 57 60 41 54 53 46 47 49 48 52 56 53 57 47 47 39 39 27 29 33 34 28 25 24 24 23 26 45 57
80 74 76 79 73 74 84 56 94 100 99 91 90 73 53 55 52 54 52 54 55 56 64 58 65 68 53 43 38 36 38 42 35 29 30 36 38 33 25 27 27 24 29 50 57
84 81 76 68 73 75 88 73 86 76 87 70 79 81 55 44 51 50 51 61 69 64 59 60 74 50 45 42 43 44 47 48 39 32 32 36 34 29 29 28 26 24 27 48 73
89 92 83 73 73 81 86 73 77 65 88 71 64 78 72 57 64 50 52 56 64 71 60 64 51 45 46 48 50 48 49 47 45 34 31 38 39 34 28 25 22 24 26 41 66
81 83 94 87 84 82 90 64 69 63 92 70 81 83 76 58 69 41 42 52 65 69 60 58 48 48 50 53 48 57 41 40 41 44 52 38 47 36 33 32 24 24 46 57 70
82 76 82 98 74 94 70 73 72 81 97 48 61 68 72 80 58 57 38 44 71 66 61 59 61 61 61 52 43 49 36 39 40 44 52 46 58 45 33 32 28 28 40 56 64
89 77 77 90 99 70 76 70 83 99 92 72 70 94 91 82 70 57 54 42 44 61 61 56 44 48 50 44 41 38 41 39 47 53 70 49 50 41 32 31 27 26 34 48 59
90 86 86 89 91 87 77 84 97 96 58 81 77 76 77 80 82 70 74 69 68 88 92 70 64 48 42 54 44 46 53 74 82 82 73 39 43 34 29 23 25 25 34 46 53
93 92 90 95 90 92 96 99 97 69 65 50 68 65 79 62 68 76 75 84 61 65 74 82 84 65 50 51 54 50 53 68 70 61 53 41 47 31 27 27 27 23 28 44 59
92 98 100 98 91 100 98 96 82 60 41 34 37 56 73 69 71 73 84 78 70 57 78 78 73 43 48 44 41 51 61 42 59 62 74 44 38 38 30 30 30 33 46 55 60
99 99 92 91 97 99 98 87 80 46 35 35 40 52 76 64 82 82 78 66 66 60 52 61 77 46 45 43 40 42 38 64 62 88 67 58 59 40 45 32 30 36 52 55 56
98 99 87 87 98 98 95 88 64 43 39 40 40 43 38 48 82 71 67 58 62 63 55 58 64 61 45 53 56 50 52 49 60 73 61 55 42 38 39 41 40 40 50 55 58
94 99 92 99 99 98 92 77 51 50 46 51 53 47 45 41 41 76 84 75 54 60 71 59 66 78 60 45 37 39 47 45 68 65 59 54 44 37 40 43 43 42 51 54 54
99 98 100 95 97 94 80 74 64 52 49 57 59 53 48 48 56 54 61 74 66 67 65 58 79 94 81 62 52 59 43 41 42 63 55 70 54 43 46 47 50 57 57 54 54
99 98 100 99 90 81 83 74 80 61 50 44 45 48 55 66 62 72 57 61 60 69 66 56 71 88 86 64 55 76 75 41 44 62 58 56 49 54 57 56 60 59 53 48 48
96 92 88 93 96 96 76 67 76 82 58 48 50 51 52 63 63 64 65 71 58 57 82 75 85 70 67 55 50 52 64 58 49 46 59 50 44 37 52 56 60 56 51 44 43
100 100 97 80 73 92 85 79 74 66 63 71 58 48 49 60 53 53 47 52 50 60 94 98 95 92 91 63 57 57 57 59 49 47 49 44 42 28 42 54 54 54 46 42 40
94 92 98 94 96 97 88 81 71 60 62 54 60 57 57 49 44 47 54 66 86 94 93 98 99 98 95 65 69 82 62 63 64 52 46 59 45 33 43 51 53 52 43 39 36

GFSSW_925_rhum_228.txt.gz
RH
88 89 99 100 100 99 98 100 90 82 66 60 60 64 63 62 57 54 60 30 32 33 33 30 28 28 29 30 29 33 48 54 39 37 29 22 26 21 22 46 58 58 44 53 65
89 88 86 87 94 99 100 96 99 97 86 76 61 62 65 67 64 68 30 33 34 34 42 34 30 29 33 33 34 37 52 47 36 30 26 25 25 22 19 24 43 45 53 74 91
95 91 87 82 78 88 95 100 99 98 100 88 78 67 67 68 71 48 40 39 37 37 42 29 27 26 31 32 33 36 43 37 29 29 26 28 28 22 19 20 34 40 50 62 93
85 82 83 82 87 87 85 94 99 100 96 100 93 77 73 70 46 37 37 40 38 33 41 29 28 31 34 34 31 36 34 31 29 28 28 28 23 23 22 19 16 31 35 58 85
77 70 72 74 83 80 87 84 90 96 100 96 100 88 87 92 74 36 39 40 38 34 29 30 32 32 35 32 29 33 29 28 26 26 26 24 26 24 23 20 17 18 40 49 63
73 70 69 80 77 78 89 80 76 81 95 100 100 97 95 95 42 27 27 32 42 37 34 30 31 30 33 35 33 29 28 29 28 28 27 26 26 22 21 18 19 25 40 43 49
77 74 73 75 78 78 81 78 75 73 81 98 100 100 88 75 43 50 49 52 48 44 48 38 32 33 34 37 31 32 33 34 34 31 30 28 28 27 21 20 19 21 43 43 46
89 81 72 70 73 75 78 73 71 73 72 90 100 100 96 63 56 44 47 51 52 51 48 43 42 39 38 35 35 35 34 42 29 32 26 26 34 27 24 22 22 23 46 52 48
83 72 73 70 68 71 78 77 60 58 71 84 99 100 94 73 69 55 43 44 38 39 44 41 40 45 40 49 53 47 56 46 37 27 27 28 34 25 22 25 25 25 25 44 55
88 82 73 74 75 71 74 84 68 66 70 99 98 100 86 74 62 58 42 51 49 50 52 54 55 58 61 58 54 56 55 46 41 28 31 33 35 28 26 26 28 27 26 26 40
88 92 83 71 69 77 81 75 78 100 98 82 85 88 61 64 56 66 54 56 54 57 67 64 76 78 58 50 42 37 45 50 39 31 32 36 37 33 28 29 32 31 31 31 32
94 83 87 86 71 71 84 88 78 69 86 62 70 82 71 59 54 52 52 63 63 70 57 71 75 49 51 48 48 45 47 46 44 36 35 41 40 36 33 27 32 29 30 31 39
95 94 86 89 82 84 83 78 76 75 90 68 60 69 78 74 79 55 55 59 69 72 55 53 45 47 53 55 56 52 52 48 48 39 36 42 42 35 32 30 29 29 26 28 40
96 91 79 89 96 84 93 61 74 71 97 68 68 66 60 68 82 58 51 53 68 63 57 58 40 48 52 61 54 65 46 46 45 49 59 38 47 35 31 32 32 30 30 32 44
95 95 81 88 87 93 66 60 69 80 100 55 54 52 59 73 62 65 47 56 69 71 58 54 59 54 56 55 49 54 42 45 47 52 59 51 63 46 35 34 31 27 30 38 49
96 92 89 86 99 85 86 75 71 98 91 58 61 89 93 77 63 62 58 48 50 60 59 61 42 40 44 42 44 42 48 44 49 57 80 53 52 37 36 34 32 28 26 37 65
94 91 97 96 89 89 87 84 98 96 54 71 77 76 77 83 84 68 78 71 86 97 92 70 61 48 44 55 47 50 57 74 82 89 70 45 48 37 28 24 26 25 30 34 59
91 91 91 98 86 92 98 99 96 71 70 45 56 64 76 68 74 79 78 86 68 73 88 85 88 66 51 51 58 58 54 71 77 64 53 42 48 31 23 24 24 21 24 35 61
90 88 98 92 88 99 99 97 87 66 53 42 41 48 63 66 64 72 81 83 70 69 86 79 78 51 54 48 44 60 68 51 63 61 73 50 36 32 27 28 29 29 35 42 56
99 96 91 79 90 99 99 89 87 50 36 35 41 45 65 61 77 73 72 64 66 63 56 65 83 52 59 51 47 47 44 73 70 96 85 50 57 40 41 30 27 34 42 50 60
98 98 82 86 92 98 96 84 62 51 43 40 46 47 40 38 87 75 93 57 56 52 61 64 71 61 59 67 69 61 58 65 79 89 83 62 47 32 28 37 37 36 39 52 64
96 99 85 100 99 98 94 72 54 55 46 47 53 48 40 35 39 54 96 86 69 76 70 65 74 84 65 48 48 51 54 62 89 86 79 70 58 37 36 38 38 32 39 51 59
100 99 94 97 98 94 78 71 68 64 56 57 58 53 46 49 52 41 38 34 34 49 96 68 94 98 87 74 59 63 54 48 56 69 74 76 57 37 36 45 46 45 57 62 67
100 98 100 98 96 90 84 79 81 64 67 51 56 52 56 63 61 57 41 43 63 65 72 92 99 95 88 68 61 86 65 52 54 74 63 64 50 38 46 46 45 50 61 64 64
100 99 88 97 95 98 86 73 74 78 65 65 64 58 58 70 66 67 62 56 47 44 64 95 99 99 91 55 46 54 67 67 59 57 71 57 53 41 45 50 46 54 63 63 62
98 99 100 98 78 90 86 84 79 72 68 75 72 59 56 62 58 60 55 56 51 47 67 98 94 97 93 97 85 65 56 64 67 54 50 52 53 36 42 48 55 60 56 58 59
83 92 99 96 91 97 88 78 73 68 65 57 64 64 63 55 45 42 47 54 51 68 84 92 95 88 89 82 94 95 89 70 67 70 58 59 46 37 38 36 36 62 52 51 52

GFSSW_925_rhum_231.txt.gz
RH
92 88 86 88 88 90 98 100 99 100 91 81 64 56 56 54 55 55 56 32 30 31 34 32 30 29 30 26 27 28 33 34 29 30 23 21 23 20 20 26 45 43 42 45 65
94 95 93 88 88 87 87 98 100 100 100 97 84 67 56 62 62 69 28 28 31 35 40 37 30 30 29 31 29 29 36 31 28 25 24 23 24 22 19 18 40 44 48 75 80
94 93 87 94 84 90 87 88 94 100 100 100 98 83 65 61 68 40 33 42 38 35 40 38 28 26 29 31 32 32 31 31 27 25 23 25 24 21 19 19 19 32 42 69 75
81 82 85 68 77 89 86 83 86 91 98 100 100 95 72 72 38 44 45 42 39 46 42 37 28 30 32 31 28 34 32 28 25 25 27 25 22 21 20 18 16 17 36 61 70
71 71 79 83 74 74 88 92 83 82 87 97 100 100 85 78 56 38 40 44 39 39 32 30 31 32 34 31 29 32 30 28 26 24 25 23 23 22 20 16 16 17 37 45 56
71 76 71 75 78 77 74 92 88 78 74 87 99 100 94 92 43 28 35 38 40 35 34 29 29 29 31 32 30 28 27 25 25 24 24 25 24 23 18 18 16 19 20 38 45
81 76 77 86 73 77 76 80 91 81 78 75 94 100 95 74 46 49 44 42 44 39 38 38 31 32 33 36 30 30 32 30 30 28 26 24 27 26 18 18 17 17 16 23 38
94 85 75 69 75 68 76 74 78 80 79 77 84 98 94 76 70 55 52 56 52 52 46 44 44 37 36 33 35 35 34 36 27 28 26 23 25 18 19 20 19 18 17 19 29
91 88 82 73 68 75 73 80 77 75 89 85 90 94 90 80 69 60 53 48 43 49 50 44 44 46 41 43 43 42 41 41 32 27 26 26 27 18 19 22 20 21 19 19 25
85 83 78 84 76 70 80 75 72 71 77 96 97 87 75 83 69 68 55 51 40 44 49 51 52 50 49 48 51 45 49 41 32 27 29 28 28 20 21 21 20 20 20 22 20
95 92 86 79 84 77 78 81 78 93 85 70 84 85 70 71 61 66 61 58 46 45 51 60 62 63 47 44 39 34 35 36 34 29 30 29 29 24 20 25 25 22 22 22 22
95 94 90 87 80 85 82 84 73 78 92 75 77 83 78 81 90 59 56 62 62 62 46 61 65 45 44 46 46 45 44 40 36 32 33 32 33 27 25 24 24 24 23 23 22
96 95 95 83 89 87 83 78 76 79 100 69 62 71 70 68 81 79 54 54 62 64 52 45 35 39 46 53 54 49 48 44 42 35 34 37 36 29 26 27 24 23 23 21 22
96 96 89 88 91 92 92 66 72 78 96 64 66 51 56 65 84 65 62 55 58 64 54 45 30 37 44 47 50 54 43 44 43 46 47 31 40 24 20 22 26 26 26 26 23
95 96 90 87 96 90 73 66 70 82 96 45 51 43 42 74 73 72 74 62 72 57 60 74 56 44 46 44 44 45 36 44 46 50 48 45 52 31 23 27 24 25 27 27 25
93 95 92 94 96 86 81 70 81 99 90 52 53 72 69 66 57 51 67 74 77 70 55 52 40 40 39 39 45 43 45 46 48 50 65 44 46 32 22 23 22 23 22 23 24
91 90 95 97 84 87 86 88 97 95 47 47 63 63 69 74 71 56 81 96 93 99 99 77 58 39 40 47 41 49 61 100 100 94 67 35 44 37 27 20 19 22 24 25 25
90 85 77 81 84 94 95 100 96 69 58 44 46 58 78 67 71 69 74 91 84 82 85 95 98 71 49 48 51 56 55 81 80 65 51 39 45 32 22 21 20 22 21 22 28
93 82 88 81 87 98 99 97 83 59 50 42 38 50 55 63 76 76 79 90 76 78 93 97 96 56 49 44 42 58 77 68 81 72 81 43 32 27 23 22 25 23 23 26 30
96 83 78 78 86 99 99 90 74 45 36 35 39 45 53 52 64 92 78 83 82 74 66 64 87 52 57 47 44 48 54 96 96 97 86 49 45 40 34 25 23 23 27 29 35
96 96 66 69 98 99 96 79 64 49 43 44 43 38 42 36 32 50 88 65 66 68 72 68 82 79 64 71 74 70 68 81 82 84 69 55 38 27 29 26 27 25 23 24 37
84 99 80 94 99 100 92 68 56 54 49 51 47 46 42 36 35 41 49 64 76 92 92 80 88 98 87 57 54 56 63 78 89 95 76 67 57 25 31 31 28 28 28 28 36
98 98 76 96 98 95 84 91 66 61 56 55 54 48 43 43 46 39 38 28 26 62 92 97 95 98 78 70 62 67 56 55 61 64 68 74 51 37 30 37 38 35 39 44 51
96 97 96 99 89 87 89 93 95 64 62 59 56 51 52 68 50 49 44 34 41 37 66 83 100 99 90 86 92 72 71 54 57 80 63 60 44 42 40 37 38 44 50 57 61
99 94 91 94 91 95 89 73 75 78 64 62 70 67 63 76 70 66 54 49 41 40 64 90 95 96 93 90 85 88 97 86 68 62 73 53 48 41 33 34 40 42 54 58 62
97 98 91 94 94 91 88 94 91 90 92 83 78 60 66 74 64 58 56 58 51 45 50 76 77 66 83 64 50 87 66 83 85 84 69 54 50 34 33 33 34 46 50 55 56
64 72 93 82 94 96 86 74 75 64 71 64 62 66 73 63 52 49 47 49 52 54 58 75 71 74 80 48 74 88 70 56 84 90 75 82 54 40 39 39 35 33 46 47 50

GFSSW_925_rhum_234.txt.gz
RH
84 86 91 94 88 82 92 88 93 100 99 100 91 75 58 54 53 54 42 31 32 32 32 29 27 23 21 18 17 16 17 14 14 15 12 13 16 15 14 15 19 22 28 29 41
94 96 86 86 88 80 86 89 84 90 100 100 100 93 76 61 64 45 35 34 27 34 34 28 23 24 23 20 19 18 17 14 13 12 13 13 16 16 15 14 13 23 35 37 51
90 90 92 76 80 86 85 89 87 87 90 99 100 100 88 67 46 24 24 26 26 34 34 27 23 22 22 20 20 18 20 14 16 14 13 14 16 14 15 15 13 18 23 37 44
80 84 86 90 92 78 88 84 88 90 89 89 100 100 96 75 33 36 44 44 43 47 45 31 24 25 25 24 19 23 20 17 15 15 17 17 14 16 14 13 12 13 14 28 40
77 71 84 88 94 83 78 79 90 90 88 85 93 100 100 68 42 44 43 44 51 51 34 26 25 23 24 21 20 25 17 19 17 17 17 17 17 16 14 12 12 13 14 23 33
85 79 77 91 94 91 75 78 82 94 94 86 96 97 100 81 37 33 44 49 39 35 31 26 22 19 21 21 22 19 19 18 18 18 18 20 18 17 13 12 12 14 14 16 22
90 89 82 77 78 71 69 71 78 84 93 95 93 96 94 82 50 44 42 35 36 36 29 26 23 24 21 26 21 20 24 21 21 19 20 18 21 19 14 13 14 13 13 13 15
95 86 86 81 79 69 63 69 74 78 86 90 96 93 88 66 69 57 47 44 45 42 38 31 32 25 26 22 25 27 25 26 18 18 19 20 20 13 13 14 14 14 13 12 12
95 91 80 82 78 77 66 71 73 73 72 89 98 95 87 64 78 66 59 48 40 43 45 36 34 32 31 33 30 27 26 26 19 18 18 22 18 12 10 14 14 14 13 12 12
94 94 91 82 82 82 75 64 67 71 80 87 96 91 80 65 69 68 62 57 40 36 47 44 36 36 37 36 34 27 30 25 26 20 22 21 19 13 14 15 14 12 13 13 13
94 94 95 90 82 85 81 65 50 64 75 63 77 84 79 77 80 69 61 66 45 37 41 42 47 44 31 31 27 21 22 27 21 19 24 21 18 16 14 14 16 15 14 13 14
95 95 95 94 81 84 86 60 50 71 94 65 66 67 62 73 90 68 67 77 93 71 37 43 48 29 27 25 30 31 28 26 20 23 26 22 20 17 16 16 15 16 15 15 14
93 96 95 87 79 85 83 67 57 76 98 72 54 61 63 76 85 75 78 73 82 89 63 38 33 29 26 31 36 35 32 28 26 23 26 26 27 21 16 16 16 16 15 14 15
89 94 89 88 85 86 72 73 71 80 95 46 53 51 54 65 86 58 73 88 78 85 72 52 26 23 30 36 33 40 26 26 27 31 35 24 32 19 14 12 12 14 17 16 15
87 93 90 90 90 74 66 71 78 83 90 35 37 34 44 75 50 65 65 90 91 78 69 80 51 34 27 30 28 32 22 27 31 32 29 25 27 20 14 15 13 12 12 15 15
84 92 93 77 88 75 81 78 77 98 72 35 33 54 57 70 56 44 75 79 85 88 81 70 43 41 37 24 24 22 31 28 33 36 43 30 26 21 17 16 16 12 12 13 15
84 90 87 80 73 81 90 73 98 91 31 30 33 36 59 66 71 56 89 96 96 100 100 89 83 58 36 36 34 31 42 94 92 66 48 23 27 24 17 16 15 14 12 13 14
89 72 77 77 72 91 96 100 95 42 45 26 33 28 43 93 59 58 70 95 84 86 97 98 99 79 55 45 62 61 66 73 73 62 44 30 36 25 17 16 16 16 15 13 14
84 68 72 69 88 98 99 99 63 42 36 34 26 28 25 38 91 80 68 77 90 84 98 100 98 72 50 35 39 69 95 48 69 66 55 32 27 22 19 18 16 16 16 17 16
80 66 59 68 83 98 100 87 54 44 37 33 36 26 30 24 38 75 98 78 58 73 79 87 96 73 67 53 50 72 55 92 99 99 86 40 34 27 20 20 19 18 18 18 16
75 75 55 81 95 99 97 73 51 44 42 55 39 36 31 30 29 33 36 58 91 94 91 88 98 66 74 86 86 92 96 92 84 69 57 44 29 17 18 18 19 18 17 18 18
69 85 82 87 99 100 95 65 52 52 45 46 46 45 41 35 37 38 37 30 61 76 91 100 100 98 72 47 54 60 75 90 96 92 59 52 48 19 19 18 20 20 18 18 19
80 72 50 79 90 88 63 78 81 60 50 42 44 39 37 41 48 34 33 26 26 54 70 46 96 95 83 58 70 88 63 70 73 51 64 70 48 23 20 21 21 23 22 28 30
82 83 90 85 68 76 82 78 65 78 67 58 52 44 56 61 46 43 36 29 32 35 46 58 70 86 88 96 93 93 90 96 89 90 70 57 40 26 26 25 24 29 34 42 43
82 82 60 75 82 71 57 85 72 64 80 54 76 67 57 63 58 61 46 40 33 33 38 72 91 90 85 69 72 82 86 75 92 94 86 51 40 29 23 25 28 28 33 40 44
88 88 63 66 55 61 58 66 62 53 65 58 61 50 54 59 58 71 49 50 46 38 42 44 83 63 76 63 54 50 42 50 72 82 79 66 63 39 24 20 22 23 24 27 39
60 60 78 61 62 66 61 60 66 46 50 48 61 57 54 64 49 44 42 44 45 50 52 64 70 67 66 44 50 67 55 46 45 45 54 68 49 58 49 38 30 29 28 27 26

GFSSW_925_rhum_237.txt.gz
RH
89 93 95 96 90 81 73 80 79 80 82 96 100 100 99 86 68 57 41 29 29 30 31 26 22 19 17 14 13 12 16 15 11 11 10 7 10 9 9 11 12 13 17 20 30
86 84 85 88 84 84 84 80 78 83 84 86 92 100 100 98 79 48 33 30 32 32 31 21 21 18 18 16 14 16 16 13 8 8 10 8 10 9 11 10 12 14 22 23 34
93 84 82 83 91 93 83 88 82 80 85 85 86 96 100 99 60 34 26 25 26 31 32 22 19 17 22 16 16 16 19 12 10 10 9 10 10 10 12 10 9 12 22 24 34
93 85 77 86 85 92 84 82 81 81 84 87 85 89 90 97 45 37 33 25 24 30 30 27 21 23 22 22 15 18 14 12 11 11 11 10 9 10 10 11 8 11 14 22 29
89 85 81 79 88 85 78 76 79 81 83 91 92 93 86 92 49 39 36 39 41 40 29 25 25 22 24 20 16 18 16 12 12 12 12 12 12 11 11 10 9 10 12 16 24
86 89 89 89 88 86 69 67 69 76 80 86 96 95 87 95 48 33 31 38 35 36 29 24 23 18 19 19 17 15 15 15 12 14 13 14 14 13 11 9 9 10 12 12 16
94 84 81 86 93 91 79 64 62 70 81 80 83 99 89 79 60 59 54 28 35 30 26 25 21 18 18 18 15 15 18 16 15 13 14 13 16 15 11 9 10 10 11 11 12
94 94 83 80 81 81 80 79 64 68 73 94 86 94 93 61 58 62 60 36 28 30 29 23 22 19 20 16 18 19 19 23 15 14 14 15 18 13 11 11 11 11 11 11 11
94 94 87 83 81 83 80 81 71 56 67 86 97 95 90 69 63 58 54 49 30 34 34 30 26 26 23 25 26 23 25 22 16 12 14 16 18 11 9 10 11 11 11 11 11
90 94 94 86 81 77 76 71 66 62 63 69 82 91 74 62 50 63 74 64 43 31 34 37 33 37 30 27 32 28 25 20 17 13 12 14 16 12 9 9 10 10 10 10 11
84 94 94 92 88 71 74 59 41 54 65 56 50 70 41 63 87 71 66 84 66 46 42 39 45 41 28 25 22 18 18 18 16 11 13 17 16 13 10 10 10 10 10 10 10
78 90 95 94 72 66 79 66 54 62 79 40 48 50 59 49 83 72 86 98 95 92 39 36 52 28 21 20 23 22 19 17 14 14 15 17 18 13 10 10 10 11 11 10 10
76 86 92 88 63 68 65 63 67 63 84 49 36 37 36 52 72 59 79 87 93 87 63 43 37 27 24 22 21 22 23 20 16 15 15 18 21 17 12 10 10 10 10 11 11
76 83 87 77 58 61 50 54 52 69 92 46 30 33 32 50 78 52 67 90 90 91 73 53 27 28 31 30 23 27 18 19 18 18 23 20 29 17 13 12 11 12 12 12 11
79 80 86 72 68 58 49 51 65 63 87 22 21 24 29 69 38 52 54 83 94 90 87 86 47 30 31 27 23 25 18 20 23 23 21 19 24 19 14 12 11 10 11 11 12
88 88 89 52 55 54 65 71 75 90 72 27 20 32 46 50 54 40 69 78 76 94 90 92 55 42 31 25 21 19 23 24 26 28 37 26 22 18 15 12 10 9 8 8 9
88 88 80 56 51 50 71 73 93 81 29 23 27 41 40 53 62 58 66 97 99 100 100 89 93 71 54 50 26 22 34 61 64 54 56 26 24 19 13 10 10 9 9 9 9
82 65 68 58 54 53 79 88 88 41 41 25 23 20 23 41 84 80 62 94 91 95 100 99 97 86 70 66 45 33 39 80 71 61 43 28 29 18 12 11 11 11 11 11 11
58 49 47 46 57 74 92 93 56 38 60 42 26 27 19 25 53 85 96 62 80 90 97 99 98 72 71 58 49 49 48 39 49 36 40 28 24 18 14 12 11 12 12 14 14
59 43 40 54 68 78 97 84 46 31 33 36 48 30 44 29 36 41 83 97 99 97 100 93 92 78 71 68 68 76 46 70 75 100 94 32 28 25 19 17 14 15 15 14 14
57 49 39 75 86 97 92 75 49 31 27 33 36 39 34 34 36 48 42 54 95 96 88 100 100 75 79 96 92 97 96 88 79 91 65 45 29 17 16 15 16 16 16 15 15
49 79 53 69 85 100 92 60 60 50 30 36 36 43 39 32 31 31 33 33 55 51 86 100 99 98 86 59 63 72 84 94 97 99 66 45 36 14 16 16 15 16 15 14 15
67 62 38 50 87 80 50 48 60 71 64 53 43 36 36 38 40 30 27 22 31 50 78 76 94 86 59 59 72 96 96 97 95 74 73 74 46 20 19 18 16 18 18 24 22
63 86 84 70 51 55 53 56 53 60 56 47 48 46 46 49 39 41 38 36 38 39 57 68 88 88 91 97 96 96 98 100 97 100 88 59 36 22 20 19 18 23 28 27 27
70 80 54 79 89 55 42 50 50 50 33 46 71 53 49 53 47 47 36 36 32 33 32 54 76 80 86 79 63 65 63 78 96 89 93 52 40 26 25 26 21 25 27 30 33
95 86 56 60 48 51 46 49 43 37 62 55 56 50 45 55 46 54 45 48 46 37 42 42 72 64 66 46 45 52 42 42 44 68 84 61 55 36 32 28 26 22 24 23 20
59 48 71 63 56 60 56 44 37 33 55 43 38 58 90 84 55 47 45 45 42 49 53 58 75 67 64 42 45 61 46 39 37 33 44 55 38 33 33 33 32 36 38 35 28

GFSSW_925_rhum_240.txt.gz
RH
94 90 84 82 84 85 80 75 77 70 71 74 78 79 90 97 98 89 64 39 30 32 33 31 27 23 22 18 15 14 20 21 17 14 10 7 6 7 7 8 9 9 15 24 35
96 95 92 87 82 80 86 87 77 74 72 74 76 78 77 85 99 79 56 42 34 31 32 29 26 21 20 18 16 17 20 18 13 10 10 8 7 8 9 10 10 11 18 20 35
95 96 96 94 90 86 83 73 80 83 85 82 86 83 72 71 84 55 41 36 29 28 32 30 23 20 22 18 17 16 19 15 11 10 9 9 8 8 9 11 8 11 21 21 32
96 96 96 95 96 95 79 65 73 92 93 94 91 88 79 71 87 38 34 32 31 28 29 28 27 27 23 24 18 19 15 15 13 11 10 11 8 9 9 11 8 8 17 20 31
96 95 96 96 95 95 90 82 63 68 87 74 91 88 78 71 72 55 54 46 40 43 28 25 27 29 28 22 20 20 16 14 12 11 10 11 10 10 10 8 8 9 15 20 28
94 96 94 94 86 83 82 87 79 64 62 92 89 90 85 88 53 52 54 54 49 33 30 24 23 23 24 23 22 18 17 15 14 13 11 12 12 12 11 9 9 10 11 15 22
94 94 89 94 93 79 74 72 73 74 61 77 94 95 86 70 53 56 53 52 53 50 30 26 21 21 22 23 18 19 20 17 15 14 14 12 15 14 11 10 10 10 10 11 12
89 93 86 81 78 75 71 65 64 66 69 66 94 92 92 58 64 59 54 46 46 49 37 26 22 22 23 19 20 21 21 25 17 15 14 14 20 14 11 11 11 10 10 11 11
86 87 89 85 81 73 64 60 53 50 66 77 84 78 78 57 64 66 64 60 51 50 48 28 26 27 25 29 26 23 28 25 21 15 14 14 18 13 11 11 12 11 11 10 12
78 81 90 88 84 69 63 56 54 55 73 73 68 93 63 52 48 85 89 88 81 63 63 31 35 39 31 29 38 31 28 25 24 17 15 15 16 14 12 10 12 12 11 11 11
77 78 85 90 88 61 74 62 34 47 68 62 55 70 44 34 68 62 94 94 80 83 96 38 51 50 38 30 26 24 23 23 20 16 17 16 15 13 13 12 11 10 11 11 11
78 80 83 89 67 47 74 59 55 71 92 48 40 36 34 37 46 42 74 92 87 94 82 75 61 42 31 27 27 24 23 22 18 16 17 16 15 12 11 12 12 11 10 10 11
82 81 79 74 39 60 58 51 57 64 77 49 34 32 28 25 39 47 62 77 95 98 89 89 47 37 31 30 30 28 25 23 20 16 15 16 17 14 12 12 11 10 9 10 10
87 88 84 68 49 52 43 51 53 59 91 42 27 23 24 26 49 39 38 71 95 98 87 89 62 38 41 36 26 31 21 20 20 20 21 14 25 18 15 15 13 11 11 12 11
88 90 85 71 66 58 44 54 57 66 88 19 17 21 21 41 32 62 47 57 96 92 94 97 83 67 40 38 29 27 19 21 21 23 22 18 23 19 15 16 15 13 12 12 13
87 90 87 61 52 44 49 60 76 94 73 27 17 34 58 65 45 40 58 62 79 94 90 98 80 86 65 39 30 25 25 24 22 24 35 26 24 24 20 16 14 12 11 11 12
82 78 80 60 59 53 51 65 90 88 28 25 38 34 36 24 45 64 66 100 92 98 97 76 92 79 73 87 57 50 34 55 56 52 70 30 29 23 16 14 13 12 12 11 11
77 60 68 63 59 51 57 78 82 38 35 24 40 33 21 79 80 89 100 96 95 98 99 88 88 81 78 92 77 58 52 71 88 84 66 50 56 35 18 13 12 11 11 11 12
67 61 48 39 44 55 78 85 56 37 24 45 48 37 27 27 76 80 96 95 91 99 99 100 98 72 73 71 78 73 69 52 66 46 48 36 35 27 20 16 14 13 12 13 13
69 53 46 71 67 68 91 68 46 32 30 33 60 40 33 30 44 42 78 94 97 100 100 98 92 43 64 75 85 94 72 84 76 96 84 38 35 33 24 20 16 14 14 13 13
70 60 38 69 79 86 93 63 44 30 28 62 64 35 36 34 32 32 34 47 74 91 81 100 100 75 45 91 88 98 99 90 82 92 80 59 38 21 20 19 19 17 16 18 23
58 87 42 60 84 99 84 51 42 38 39 49 62 60 44 29 32 36 68 53 55 49 82 98 97 86 88 68 58 72 93 92 98 100 93 54 40 19 21 19 19 19 16 18 21
71 59 39 43 94 81 53 43 35 39 44 64 72 43 36 39 49 39 43 65 44 53 71 72 90 84 53 70 87 100 100 100 100 98 74 75 54 24 23 22 23 30 31 32 28
81 88 82 67 56 58 57 59 49 34 35 43 52 39 44 51 39 47 45 56 49 47 62 66 77 78 88 94 97 96 97 100 99 99 95 60 40 25 39 41 35 34 34 33 29
80 82 54 82 84 58 47 47 45 39 27 26 37 47 60 86 63 48 41 41 47 47 61 70 81 72 72 67 74 83 96 90 95 97 97 61 47 32 52 64 40 30 31 31 31
99 89 59 67 50 54 53 54 48 43 37 40 53 45 49 70 91 95 96 61 60 41 48 73 77 69 75 53 50 58 60 55 64 63 70 64 59 39 38 59 54 36 33 37 35
65 59 77 70 63 69 63 47 42 38 38 33 44 49 54 42 43 53 62 64 48 50 53 74 96 76 67 54 63 86 61 44 41 39 39 49 41 34 33 56 61 44 31 31 30

GFSSW_925_rhum_243.txt.gz
RH
96 97 96 95 81 72 75 85 75 73 71 77 75 69 67 61 61 68 87 78 42 33 36 36 33 31 30 32 28 24 35 34 29 25 20 13 11 9 9 9 10 14 34 40 42
98 97 96 97 95 94 85 60 56 84 92 91 86 86 70 59 62 64 68 63 44 33 51 41 35 30 35 33 30 29 32 30 21 18 18 14 12 10 10 10 11 30 39 40 44
95 95 96 97 92 88 82 76 69 69 90 93 95 95 70 54 63 59 57 63 67 68 54 49 36 33 37 31 30 28 31 23 20 17 15 15 13 10 12 12 11 21 46 42 43
94 96 95 95 94 90 88 83 77 76 73 85 93 94 68 72 64 57 51 54 53 48 49 50 38 41 42 42 27 30 22 20 18 16 16 17 13 13 11 12 10 14 39 44 45
94 95 95 95 95 95 82 72 70 73 74 67 92 94 78 69 64 22 36 46 48 51 55 48 41 38 43 37 32 28 23 19 17 16 16 15 16 14 13 11 10 14 27 43 46
92 94 95 95 94 94 86 74 65 61 66 75 88 92 90 94 41 34 45 51 53 50 48 52 37 30 34 36 38 26 24 23 19 17 16 17 16 14 14 12 11 12 26 37 42
88 89 93 94 93 93 80 59 54 54 57 72 93 94 80 78 42 52 55 57 52 53 47 44 49 36 29 34 28 27 30 26 23 20 20 17 20 18 15 13 13 12 15 32 35
81 83 83 91 93 85 67 57 47 42 50 76 96 92 87 64 58 62 55 64 56 56 46 44 49 53 34 28 28 33 30 36 25 22 19 20 24 17 14 14 15 14 14 16 24
80 81 81 84 81 68 56 48 34 27 42 74 98 86 79 56 60 54 76 73 80 69 56 50 52 60 37 41 44 38 44 37 30 21 21 20 23 18 14 13 15 14 15 14 16
80 80 83 84 75 52 43 39 42 50 64 84 84 90 78 62 45 71 75 80 78 79 81 57 61 61 43 43 61 49 44 35 33 24 22 22 22 17 15 15 14 14 13 16 15
84 83 83 81 59 27 41 76 63 68 66 73 65 78 60 48 44 60 79 77 70 78 96 76 94 67 54 40 36 34 38 34 27 22 23 23 22 18 15 15 14 16 14 14 16
85 87 87 86 40 30 70 82 71 73 96 60 56 58 54 52 65 49 59 69 75 90 81 94 97 78 44 44 43 38 38 36 27 22 24 24 22 18 16 14 14 14 15 13 13
83 89 90 60 36 59 51 62 55 62 90 62 47 44 41 38 52 47 47 71 84 80 88 96 87 77 63 52 50 43 40 35 32 24 21 22 24 21 16 14 14 13 13 14 12
87 88 83 61 48 54 66 57 60 57 98 56 31 27 29 32 45 36 33 57 75 88 94 95 76 78 83 68 48 52 34 31 30 31 33 22 34 22 18 16 14 14 13 13 16
93 90 74 68 85 79 58 51 54 64 100 30 38 40 45 45 38 53 41 65 84 77 94 92 83 87 87 80 52 48 32 33 32 32 28 26 34 23 18 18 15 14 13 16 16
93 88 77 72 72 49 54 56 64 92 91 34 34 40 36 42 52 53 74 60 70 93 80 92 84 89 83 71 58 48 47 43 33 35 48 30 28 26 19 18 15 14 16 15 15
78 60 61 83 74 57 65 71 95 100 40 32 29 34 37 56 77 74 86 94 98 99 93 64 86 83 82 94 72 70 83 86 72 70 57 28 31 26 18 14 17 17 14 15 14
77 57 52 60 55 56 64 92 100 53 45 27 29 41 43 69 72 78 96 89 100 98 99 95 71 72 72 93 92 84 93 96 88 68 75 48 48 28 18 16 15 15 15 15 14
73 67 64 50 56 61 92 98 83 49 33 38 40 50 44 35 53 65 87 84 92 95 96 95 89 52 64 65 78 92 100 83 91 77 66 45 51 38 30 25 18 17 15 20 19
96 74 63 61 62 62 99 86 64 43 40 41 63 46 65 57 47 45 56 83 98 96 100 91 92 70 70 70 78 78 74 98 99 98 94 58 44 48 32 32 26 24 20 16 16
86 83 54 62 58 94 98 86 61 41 37 46 81 89 70 60 56 47 64 84 75 90 84 91 98 69 75 92 92 98 98 98 98 99 92 73 50 27 26 22 28 25 21 19 16
77 91 48 43 91 91 97 60 44 49 39 43 58 68 69 67 60 51 58 77 62 55 80 94 97 92 95 85 75 71 91 97 99 99 87 83 51 23 23 30 26 23 20 17 17
97 90 47 46 96 96 73 63 52 47 41 62 49 62 63 60 74 53 51 61 60 66 82 71 94 94 74 94 83 97 100 100 100 99 99 92 58 28 46 46 43 38 27 20 17
94 99 95 90 81 79 79 74 71 47 41 35 36 34 44 84 66 70 66 53 61 66 64 67 87 83 90 93 98 98 98 100 98 99 99 87 50 51 52 66 59 54 42 40 38
96 92 76 94 91 80 69 65 67 61 42 40 48 52 56 82 91 77 58 65 61 55 62 80 99 88 80 79 92 94 97 90 96 96 97 84 73 48 53 79 72 57 56 35 38
91 100 89 90 73 76 70 75 70 54 49 52 58 49 68 78 71 96 80 78 90 65 91 98 96 95 88 67 70 89 68 80 69 70 90 82 90 43 66 84 75 65 58 46 32
85 77 96 85 82 89 81 71 64 50 44 39 40 48 69 70 57 46 47 53 71 82 79 92 97 92 86 70 74 90 76 59 51 47 52 62 55 43 54 53 80 72 60 57 31

GFSSW_925_rhum_249.txt.gz
RH
92 94 94 97 94 92 91 90 84 68 65 68 82 90 94 39 27 57 57 30 62 74 76 68 62 48 37 42 37 35 54 50 36 35 25 21 22 18 16 15 15 37 53 50 70
93 93 94 91 94 96 94 81 69 79 95 96 90 76 76 44 54 72 62 60 60 57 52 71 71 61 52 44 44 49 64 44 32 25 26 23 26 25 20 20 17 56 52 62 77
93 93 94 93 95 96 96 90 74 93 94 94 94 96 90 49 73 70 59 38 28 29 46 55 70 67 60 45 46 50 48 33 32 30 28 30 29 23 20 22 16 31 65 66 71
92 92 93 93 93 95 91 68 64 83 88 83 94 96 85 61 14 66 39 26 35 35 42 51 65 73 66 58 46 52 42 38 32 30 32 32 27 26 24 21 17 25 56 64 70
88 89 90 90 89 84 53 35 30 39 59 70 90 94 84 85 63 25 27 34 42 48 46 52 66 65 66 55 45 49 42 36 34 32 31 28 29 27 25 20 16 26 54 61 65
87 87 88 88 88 79 61 20 17 19 22 36 87 91 85 89 39 38 41 41 48 60 51 48 55 54 64 56 50 42 42 39 36 35 33 31 29 24 22 18 18 30 54 57 59
87 88 88 87 83 79 62 17 17 36 53 64 93 91 80 78 31 36 48 52 51 63 62 49 46 54 56 68 56 46 51 40 37 38 36 30 34 31 22 19 18 29 53 54 55
88 89 91 92 88 70 24 30 52 55 63 61 85 91 90 56 50 57 56 52 53 58 68 66 50 50 56 57 60 54 46 53 31 34 36 31 39 25 22 23 23 23 52 54 54
86 85 88 89 71 35 50 52 49 68 56 68 86 85 88 61 66 54 53 61 73 64 55 49 51 54 61 76 76 67 53 47 39 29 36 35 37 26 24 25 24 22 48 54 55
90 88 86 83 64 37 51 53 58 70 78 85 88 95 73 64 52 54 59 69 88 79 56 73 76 87 83 88 88 82 70 50 42 29 33 40 37 28 26 25 23 22 28 58 55
93 92 91 80 65 52 56 61 70 70 64 68 61 80 58 49 47 46 55 79 74 80 76 64 76 84 75 76 67 60 54 52 35 32 33 38 37 31 27 27 25 23 22 38 58
94 94 93 68 50 50 53 69 67 74 92 58 62 67 59 54 71 61 56 70 83 92 70 80 89 59 48 70 85 76 69 58 43 34 34 33 36 29 27 26 24 22 21 20 34
95 94 88 59 48 40 64 59 55 70 91 66 46 51 48 55 73 69 66 75 85 89 86 91 66 48 55 57 84 95 86 70 63 39 32 33 39 33 28 23 22 21 18 18 19
94 94 85 69 46 66 51 52 62 75 86 50 50 46 38 44 58 50 64 64 75 88 78 83 65 69 74 78 60 97 69 82 61 61 65 32 50 33 30 29 23 21 20 18 21
94 95 94 88 82 79 57 60 64 64 41 24 42 24 25 52 55 55 64 77 95 94 80 75 73 85 84 70 59 72 65 76 69 70 56 49 47 37 26 30 27 23 19 18 20
94 94 94 84 80 44 60 64 65 77 42 46 29 38 42 50 64 57 65 76 78 87 82 86 62 70 76 64 65 57 84 84 96 96 96 61 49 43 34 28 23 22 20 18 18
93 83 85 83 72 48 61 64 78 73 38 46 44 46 49 59 53 58 65 91 91 95 90 69 73 75 67 85 68 83 99 96 97 98 93 62 53 43 28 23 22 19 21 19 17
83 55 53 59 60 69 70 79 60 40 55 42 48 53 51 54 58 60 72 98 94 97 93 93 84 82 70 81 78 89 94 86 92 94 83 56 64 43 25 22 19 19 17 18 20
70 58 60 62 56 71 88 94 73 56 48 57 58 62 61 54 66 75 81 81 88 98 96 100 89 52 49 58 78 79 98 63 78 90 96 64 47 37 27 22 22 25 20 18 17
87 85 64 65 68 70 92 88 73 57 52 56 75 62 79 71 84 76 80 72 93 92 90 88 95 56 64 72 68 84 91 99 98 93 94 85 55 43 36 31 22 20 25 26 24
84 93 56 72 69 93 97 93 71 54 52 61 68 74 65 77 57 66 71 63 85 87 95 96 98 65 61 87 97 93 99 100 99 97 85 97 89 41 36 30 28 24 21 30 33
87 92 62 67 86 96 99 85 61 62 49 56 58 56 54 59 64 60 88 72 57 76 100 91 98 94 67 77 91 98 97 97 99 99 100 96 83 70 80 72 57 63 56 48 40
98 95 64 57 92 99 89 81 66 65 58 55 54 48 52 60 77 72 64 60 58 64 87 98 96 96 61 92 90 95 93 95 96 98 97 94 83 63 77 78 78 76 66 60 51
95 98 89 91 86 82 82 79 77 58 62 57 53 53 57 70 64 71 65 63 59 58 70 93 97 92 94 90 92 97 86 87 98 97 97 90 72 64 62 76 82 82 78 70 62
96 93 84 97 87 81 80 76 74 77 59 52 59 57 66 81 68 66 55 53 50 54 70 76 97 96 94 86 81 92 93 89 96 94 97 82 85 68 66 81 81 77 77 78 72
92 99 94 95 82 81 75 88 78 68 69 68 72 66 69 86 77 83 70 68 66 56 72 73 94 79 89 70 77 75 54 53 72 84 93 81 78 72 65 57 64 68 75 79 78
92 86 97 85 91 96 91 78 70 69 63 61 66 74 75 66 59 59 61 62 63 66 66 74 97 95 85 76 72 76 58 61 68 73 85 90 77 68 68 67 60 63 75 80 79

GFSSW_925_rhum_252.txt.gz
RH
87 87 88 88 90 96 96 95 80 78 93 94 94 95 51 38 31 60 62 47 66 61 57 52 62 55 41 44 41 39 58 54 44 37 26 21 23 21 21 19 20 21 48 58 88
89 90 91 87 90 93 94 95 94 94 94 94 93 94 87 45 45 72 75 54 28 30 35 55 71 66 48 47 47 52 69 47 34 29 27 22 26 29 25 26 22 49 63 80 96
90 90 91 92 93 94 95 96 95 96 95 94 93 91 82 56 70 69 67 33 30 31 28 52 59 72 67 50 51 53 54 39 35 32 31 30 33 26 26 30 23 22 54 80 88
90 91 91 92 91 90 90 86 86 85 86 90 91 91 79 67 10 69 60 33 28 35 40 53 67 76 81 65 46 55 45 46 40 34 34 36 31 32 30 26 21 22 34 74 82
91 90 91 90 88 84 68 63 55 31 46 79 92 92 67 74 50 45 35 29 35 44 50 51 68 74 76 63 50 52 44 40 38 37 37 34 35 33 34 26 23 21 33 70 76
91 92 93 91 87 62 44 24 19 44 54 67 99 94 82 46 39 40 41 41 46 56 62 51 53 55 67 70 58 53 46 41 39 38 39 39 36 32 28 24 24 24 26 63 68
90 88 88 89 79 58 28 29 48 46 55 67 100 96 84 61 36 43 46 50 48 58 67 56 51 54 61 68 58 59 65 52 44 40 46 39 44 41 30 26 24 22 23 54 62
91 90 89 89 72 37 27 50 47 65 58 66 80 85 77 40 54 50 53 51 53 59 67 54 62 59 61 59 62 67 61 63 32 35 39 39 45 26 24 28 28 25 23 51 60
92 93 94 87 54 41 46 42 52 71 66 62 74 81 78 54 51 51 54 58 63 66 59 53 54 62 61 85 88 71 79 62 49 28 36 41 44 30 25 28 28 28 24 55 60
94 94 94 88 55 48 49 36 53 70 64 80 81 72 51 57 51 54 62 59 76 81 64 64 78 86 89 94 79 69 75 69 63 34 34 49 41 29 28 27 29 30 27 35 59
95 95 93 89 45 45 47 50 71 68 66 68 57 70 56 51 49 48 52 82 83 83 85 64 75 93 80 72 69 65 62 62 55 40 37 38 40 34 28 30 33 33 30 25 56
94 95 94 62 44 52 49 72 69 75 89 64 66 63 59 55 72 57 62 74 82 89 79 81 97 67 55 51 54 62 85 74 53 50 45 43 41 33 28 29 30 31 30 26 34
94 94 94 58 42 46 68 66 67 76 88 64 49 50 48 60 68 68 67 73 84 93 88 93 70 52 60 64 68 58 69 64 66 62 52 47 50 41 31 29 26 25 25 25 22
95 95 95 66 45 59 50 61 67 76 72 33 50 47 36 51 62 54 60 65 73 93 83 90 69 72 77 86 76 86 49 57 74 96 94 48 76 46 31 30 28 27 24 24 23
93 95 94 84 90 73 58 60 69 53 38 20 45 25 32 50 56 55 66 69 88 92 80 76 77 86 89 75 68 77 51 51 60 84 97 78 86 62 34 31 27 27 24 22 21
95 95 93 80 75 53 57 64 56 68 29 50 35 43 48 44 53 60 65 73 76 86 84 86 68 78 77 63 59 61 75 68 64 94 96 73 81 62 52 36 28 22 23 22 20
90 71 77 86 69 47 58 58 74 56 34 51 52 52 57 54 56 51 62 78 91 91 86 68 69 72 73 82 64 75 99 96 100 96 85 50 87 70 38 33 26 25 21 20 22
76 52 58 67 70 79 64 78 58 38 51 47 54 58 58 60 63 69 78 94 88 98 94 96 88 73 74 80 77 77 97 93 90 70 67 46 72 69 41 31 23 21 22 20 19
57 56 61 71 60 73 85 89 70 50 54 67 61 66 61 60 76 73 87 81 86 90 95 96 89 53 65 56 76 79 97 72 82 68 75 69 60 38 39 36 29 26 25 23 20
65 77 66 81 67 68 91 86 72 59 59 60 74 64 79 70 79 67 79 76 86 86 100 95 95 56 55 57 87 93 83 97 96 96 87 57 67 72 53 42 32 29 23 26 22
73 81 69 83 69 93 96 92 69 58 54 63 72 73 83 76 74 62 68 72 69 74 86 96 97 66 61 80 95 84 94 97 99 98 91 57 39 75 88 63 35 27 24 19 29
81 79 62 60 87 98 94 81 66 65 50 58 63 67 60 59 66 62 69 77 60 55 80 86 99 95 70 70 87 84 93 95 97 89 94 92 59 71 85 83 79 68 61 57 52
98 94 66 58 95 99 89 87 71 65 61 58 56 52 53 59 74 67 62 57 59 51 73 96 95 91 65 84 92 93 90 93 93 97 91 96 91 66 69 88 84 88 79 71 66
94 88 87 92 85 80 84 79 78 59 64 61 62 55 60 68 62 73 63 52 52 52 48 71 88 92 95 93 83 94 83 81 97 97 93 81 92 92 72 82 84 75 83 81 74
96 90 85 94 88 85 80 80 76 73 63 57 63 60 71 92 78 70 60 56 53 49 58 72 99 75 84 66 69 73 86 83 86 79 96 67 87 88 90 82 83 76 74 78 79
92 96 94 95 85 85 78 83 82 71 68 70 70 65 75 92 84 93 74 72 71 59 66 78 87 74 79 63 67 64 49 47 64 61 86 95 89 85 76 66 68 80 76 82 83
90 86 94 86 90 96 91 81 75 67 65 65 68 72 82 76 66 61 61 64 68 75 76 74 89 98 85 67 68 77 57 52 52 75 80 81 54 48 64 61 68 68 75 90 84